星链-6065 (STARLINK-6065 )

导读 | 星芒AI

STARLINK-6065 是 SpaceX Starlink 卫星互联网项目中的一颗低轨卫星。它属于 Starlink 群体的第 6 批部署任务,旨在为全球用户提供高速、低延迟的宽带互联网服务。该卫星采用先进的推进系统和激光通信技术,以提高网络效率和稳定性。STARLINK-6065 与其他 Starlink 卫星协同工作,扩大覆盖范围,支持偏远地区的互联网接入,促进全球数字连接。

基本信息
目录编号:
56812
目录名称:
STARLINK-6065
国际标识:
2023-078AX
轨道中心:
EARTH
卫星名称:
星链-6065
卫星全名:
星链-6065 (STARLINK-6065 )
卫星状态:
在轨 (已飞行888 天)
发射日期:
2023-05-31 UTC
国别 :
美国 (US)
星等 :
--
轨道信息
数据来源 国际轨道数据
星历时间: 2025-11-02T16:37:32+0800
1天前
查看轨道信息
半长轴: 6950.207km
偏心率: 0.0003063
轨道倾角: 69.997°
近地点辐角 272.576°
升交点赤经 285.382°
平近点角 87.504°
近地点: 569.943km
远地点: 574.201km
周期: 96.107分钟
每日圈数: 14.983255
详细信息
固有亮度:
5
最大亮度:
2.5
卫星平台:
Starlink v1.5
覆盖范围:
全球
运营商:
太空探索技术公司
运营商所在国:
美国
制造商(研发单位):
太空探索技术公司
制造商所在国:
美国
使用方式:
暂无
卫星简介
星链(Starlink)计划是由太空探索技术公司(SpaceX)提出的一个巨型低轨卫星互联网星座项目,计划在2019年至2024年间在太空搭建由约1.2万颗卫星组成的“星链”网络,其中1584颗将部署在地球上空550千米处的近地轨道,并从2020年开始工作。该卫星仍在工作。
2D轨道图
3D轨道图
轨道高度分析图
轨道倾角分析图
轨道综合分析图
查看轨道综合分析图